Location: Wanzleben
(52.0609°N, 11.4408°E)
Time: 16:10:28
(UTC+00:00)

Lacrosse 5 rocket - Pass Details

Date: 18 September 2020
Orbit: 461 x 635 km, 57.0° (Epoch: 21 October)

Event Time Altitude Azimuth Distance (km) Brightness Sun altitude
Rises 19:47:10 0° 278° (W) 2,791 6.0 -21.9°
Reaches altitude 10° 19:49:28 10° 285° (WNW) 1,920 5.1 -22.2°
Maximum altitude 19:53:41 44° 358° (N) 852 2.5 -22.7°
Enters shadow 19:55:13 32° 45° (NE) 1,067 2.6 -22.9°
